AirNav   Pilot Hours Calculator
 
 640 users online  

5I2 Flora Municipal Airport
Flora, Indiana, USA

GOING TO FLORA?


FAA INFORMATION EFFECTIVE 09 SEPTEMBER 2021

Location

FAA Identifier: 5I2
Lat/Long: 40-32-23.1300N 086-32-53.9990W
40-32.385500N 086-32.899983W
40.5397583,-86.5483331
(estimated)
Elevation: 710 ft. / 216 m (estimated)
Variation: 02W (1985)
From city: 2 miles SW of FLORA, IN
Time zone: UTC -4 (UTC -5 during Standard Time)
Zip code: 46929

Airport Operations

Airport use: Open to the public
Activation date: 02/1967
Control tower: no
ARTCC: CHICAGO CENTER
FSS: TERRE HAUTE FLIGHT SERVICE STATION
NOTAMs facility: HUF (NOTAM-D service available)
Attendance: UNATNDD
Wind indicator: lighted
Segmented circle: no
Lights: SS-SR

Airport Communications

CTAF: 122.9
WX AWOS-3P at GGP (13 nm NE): 118.5 (574-737-7310)
WX AWOS-3P at MCX (14 nm NW): 124.05 (574-583-0531)
WX AWOS-3 at FKR (16 nm S): 124.325 (765-654-0328)
WX ASOS at LAF (19 nm SW): PHONE 765-743-9687

Nearby radio navigation aids

VOR radial/distance  VOR name  Freq  Var
GUSr253/19.1GRISSOM VORTAC108.4502W
OKKr277/22.4KOKOMO VORTAC113.5005W
BVTr091/23.8BOILER VORTAC115.1001E
MZZr277/39.7MARION VOR/DME108.6003W

 
NDB name  Hdg/Dist  Freq  Var  ID
CRAWFORDSVILLE031/37.538804WCFJ -.-. ..-. .---

Airport Services

Parking: tiedowns
Airframe service: NONE
Powerplant service: NONE
Bottled oxygen: NONE
Bulk oxygen: NONE

Runway Information

Runway 9/27

Dimensions: 2143 x 93 ft. / 653 x 28 m
Surface: turf, in good condition
Runway edge lights: low intensity
RUNWAY 9  RUNWAY 27
Latitude: 40-32.418833N40-32.418833N
Longitude: 086-33.151833W086-32.681167W
Elevation: 710.0 ft.710.0 ft.
Traffic pattern: leftleft
Runway end identifier lights: nono
Obstructions: 15 ft. road, 285 ft. from runway, 20:1 slope to clear10 ft. crops, 200 ft. from runway, 20:1 slope to clear

Airport Ownership and Management from official FAA records

Ownership: Publicly-owned
Owner: TOWN OF FLORA
4 EAST MAIN ST
FLORA, IN 46929
Phone 574-967-4844
Manager: JORETTA TINSMAN
4 EAST MAIN ST
FLORA, IN 46929
Phone (574) 967-4844

Airport Operational Statistics

Aircraft based on the field: 7
Single engine airplanes: 4
Ultralights: 3
    
Aircraft operations: avg 38/week *
75% local general aviation
25% transient general aviation
* for 12-month period ending 31 December 2019

Additional Remarks

FOR CD CTC CHICAGO ARTCC AT 630-906-8921.

Instrument Procedures

There are no published instrument procedures at 5I2.

Some nearby airports with instrument procedures:

KGGP - Logansport/Cass County Airport (13 nm NE)
KMCX - White County Airport (14 nm NW)
KFKR - Frankfort Municipal Airport (16 nm S)
KGUS - Grissom Air Reserve Base (19 nm E)
KLAF - Purdue University Airport (19 nm SW)
 
Loc | Ops | Rwys | IFR | FBO | Links
Com | Nav | Svcs | Stats | Notes
Area around 5I2 (Flora Municipal Airport)
 
Road maps at: MapQuest Bing Google
 
Aerial photo
WARNING: Photo may not be current or correct
Aerial photo of 5I2 (Flora Municipal Airport)
Do you have a better or more recent aerial photo of Flora Municipal Airport that you would like to share? If so, please send us your photo.

 
Sectional chart

 
Airport distance calculator
Flying to Flora Municipal Airport? Find the distance to fly.

From to 5I2

Sunrise and sunset
Times for 25-Sep-2021
 Local
(UTC-4)
 Zulu
(UTC)
Morning civil twilight07:1011:10
Sunrise07:3811:38
Sunset19:3823:38
Evening civil twilight20:0500:05

Current date and time
Zulu (UTC)  25-Sep-2021 11:46:17
Local (UTC-4)  25-Sep-2021 07:46:17
 
METAR
KGGP 
13nm NE 
251133Z AUTO 29004KT 10SM SCT110 12/12 A3003 RMK AO2
KMCX 
14nm NW 
251135Z AUTO 31008KT 10SM SCT120 11/10 A3002 RMK AO2 T01080096
KFKR 
16nm S 
251135Z AUTO 31005KT 10SM FEW043 11/10 A3002 RMK AO2
KGUS 
19nm E 
251136Z AUTO 30008KT 10SM SCT007 SCT025 BKN100 12/11 A3000 RMK AO2 DZB15E25RAB25E26 SLP161 $
KLAF 
20nm W 
251054Z 28005KT 10SM CLR 11/11 A3002 RMK AO2 RAE0959 SLP163 P0000 T01110106
KOKK 
22nm E 
251128Z AUTO 30010KT 10SM OVC008 12/ A3001 RMK AO2 RAE03 CIG 007V012 P0003
TAF
KGUS 
19nm E 
250215Z 2502/2603 20012G18KT 9999 SCT020 SCT100 QNH2994INS TEMPO 2503/2505 19015G25KT 9000 -SHRA BKN015 OVC070 BECMG 2506/2507 19010G15KT 9000 -SHRA BKN015 OVC050 QNH2992INS TEMPO 2507/2512 VRB15G25KT 4800 -TSRA BKN005CB BECMG 2513/2514 27010G15KT 9999 NSW SKC QNH3001INS TX18/2520Z TN12/2512Z LAST NO AMDS AFT 2503 NEXT 2513
KLAF 
20nm W 
250813Z 2508/2606 25006KT 5SM -RA BR BKN008 BKN027 TEMPO 2508/2510 SCT008 BKN027 FM251000 27006KT 5SM -SHRA BR OVC012 FM251100 29007KT P6SM BKN080 FM251300 29009KT P6SM SCT200 FM252300 25004KT P6SM SKC AMD LTD TO CLD VIS AND WIND TIL 251300
NOTAMs
Click for the latest NOTAMs
NOTAMs are issued by the DoD/FAA and will open in a separate window not controlled by AirNav.

 

 
 

Would you like to see your business listed on this page?

 If your business provides an interesting product or service to pilots, flight crews, aircraft, or users of the Flora Municipal Airport, you should consider listing it here.  To start the listing process, click on the button below
 
Add a business
 

Other Pages about Flora Municipal Airport

Update a link
 
Copyright © AirNav, LLC. All rights reserved. Privacy Policy  Contact